Sidney-Richland, MT

4:17 AM MST on November 21, 2017 (GMT -0700)
Sidney-Richland Municipal

Weather History for KSDY - January, 2014

Change the Weather History Date:

Sunday, January 5, 2014

  Actual Average Record
Temperature  
Mean Temperature -10 °F -  
Max Temperature -4 °F 20 °F 62 °F (2012)
Min Temperature -16 °F 1 °F -32 °F (2005)
Degree Days  
Heating Degree Days 75    
Moisture  
Dew Point -21 °F    
Average Humidity 68    
Maximum Humidity 84    
Minimum Humidity 49    
Precipitation  
Precipitation 0.00 in - - ()
Sea Level Pressure  
Sea Level Pressure 30.53 in    
Wind  
Wind Speed 18 mph (WNW)    
Max Wind Speed 29 mph    
Max Gust Speed 33 mph    
Visibility 10 miles    
Events      
Averages and records for this station are not official NWS values.
T = Trace of Precipitation, MM = Missing Value Source: NWS Daily Summary

Daily Weather History Graph

Daily Weather History Graph

Search for Another Location

Airport or City:

Trip Planner

Search our weather history database for the weather conditions in past years. The results will help you decide how hot, cold, wet, or windy it might be!

Date:

Astronomy

Jan. 05, 2014 Rise Set
Actual Time 7:44 AM MST 4:19 PM MST
Civil Twilight 7:09 AM MST 4:55 PM MST
Nautical Twilight 6:30 AM MST 5:34 PM MST
Astronomical Twilight 5:52 AM MST 6:11 PM MST
Moon 10:04 AM MST (1/5) 10:15 PM MST (1/5)
Length of Visible Light 9h 46m
Length of Day
8h 34m
Waxing Crescent, 25% of the Moon is Illuminated
Jan 5
Waxing Crescent
Jan 7
First Quarter
Jan 15
Full
Jan 23
Last Quarter
Jan 30
New

Hourly Weather History & Observations

Time (MST) Temp. Windchill Dew Point Humidity Pressure Visibility Wind Dir Wind Speed Gust Speed Precip Events Conditions
12:15 AM -4.0 °F -25.2 °F -11.2 °F 71% 30.32 in 10.0 mi WNW 16.1 mph 23.0 mph N/A   Scattered Clouds
12:35 AM -4.0 °F -27.0 °F -14.8 °F 60% 30.33 in 10.0 mi WNW 19.6 mph 26.5 mph N/A   Mostly Cloudy
12:55 AM -4.0 °F -27.0 °F -13.0 °F 65% 30.33 in 10.0 mi WNW 19.6 mph 26.5 mph N/A   Mostly Cloudy
1:15 AM -4.0 °F -26.4 °F -13.0 °F 65% 30.33 in 7.0 mi WNW 18.4 mph 24.2 mph N/A   Overcast
1:35 AM -4.0 °F -25.8 °F -11.2 °F 71% 30.34 in 9.0 mi WNW 17.3 mph 24.2 mph N/A   Overcast
2:15 AM -5.8 °F -29.4 °F -14.8 °F 65% 30.35 in 10.0 mi NW 19.6 mph 24.2 mph N/A   Mostly Cloudy
2:35 AM -5.8 °F -31.5 °F -16.6 °F 60% 30.36 in 10.0 mi NW 24.2 mph 29.9 mph N/A   Partly Cloudy
2:55 AM -5.8 °F -28.8 °F -16.6 °F 60% 30.38 in 10.0 mi NW 18.4 mph 27.6 mph N/A   Partly Cloudy
3:15 AM -5.8 °F -27.5 °F -14.8 °F 65% 30.39 in 5.0 mi NNW 16.1 mph 25.3 mph N/A   Scattered Clouds
3:35 AM -7.6 °F -32.3 °F -16.6 °F 65% 30.40 in 9.0 mi NW 20.7 mph 26.5 mph N/A   Mostly Cloudy
3:55 AM -7.6 °F -31.7 °F -18.4 °F 59% 30.40 in 10.0 mi NNW 19.6 mph - N/A   Mostly Cloudy
4:15 AM -9.4 °F -35.2 °F -18.4 °F 65% 30.42 in 10.0 mi NW 21.9 mph 32.2 mph N/A   Overcast
4:35 AM -9.4 °F -36.3 °F -23.8 °F 49% 30.43 in 10.0 mi NNW 24.2 mph 28.8 mph N/A   Overcast
4:55 AM -11.2 °F -37.0 °F -23.8 °F 54% 30.45 in 10.0 mi NNW 20.7 mph 24.2 mph N/A   Scattered Clouds
5:15 AM -11.2 °F -35.2 °F -23.8 °F 54% 30.47 in 10.0 mi NNW 17.3 mph 27.6 mph N/A   Clear
5:35 AM -13.0 °F -36.0 °F -23.8 °F 59% 30.49 in 10.0 mi NNW 15.0 mph 20.7 mph N/A   Clear
5:55 AM -14.8 °F -39.1 °F -23.8 °F 64% 30.50 in 10.0 mi NNW 16.1 mph - N/A   Clear
6:15 AM -14.8 °F -39.8 °F -23.8 °F 64% 30.51 in 10.0 mi NNW 17.3 mph - N/A   Clear
6:35 AM -14.8 °F -33.5 °F -23.8 °F 64% 30.53 in 10.0 mi NNW 9.2 mph - N/A   Clear
6:55 AM -16.6 °F -36.8 °F -22.0 °F 76% 30.55 in 10.0 mi NNW 10.4 mph - N/A   Clear
7:15 AM -16.6 °F -36.8 °F -25.6 °F 64% 30.56 in 10.0 mi NW 10.4 mph - N/A   Clear
7:55 AM -16.6 °F -41.4 °F -23.8 °F 70% 30.58 in 10.0 mi NW 16.1 mph 20.7 mph N/A   Clear
8:15 AM -16.6 °F -36.8 °F -25.6 °F 64% 30.60 in 10.0 mi NW 10.4 mph - N/A   Clear
8:35 AM -16.6 °F -38.9 °F -23.8 °F 70% 30.62 in 10.0 mi WNW 12.7 mph 21.9 mph N/A   Clear
8:55 AM -16.6 °F -42.9 °F -23.8 °F 70% 30.62 in 10.0 mi NW 18.4 mph 21.9 mph N/A   Clear
9:15 AM -16.6 °F -44.8 °F -23.8 °F 70% 30.63 in 10.0 mi WNW 21.9 mph 28.8 mph N/A   Clear
9:35 AM -16.6 °F -44.8 °F -25.6 °F 64% 30.64 in 10.0 mi WNW 21.9 mph 32.2 mph N/A   Clear
9:55 AM -16.6 °F -46.4 °F -27.4 °F 58% 30.64 in 10.0 mi NW 25.3 mph 31.1 mph N/A   Clear
10:15 AM -16.6 °F -45.3 °F -27.4 °F 58% 30.64 in 10.0 mi NW 23.0 mph 31.1 mph N/A   Clear
10:35 AM -16.6 °F -46.9 °F -25.6 °F 64% 30.64 in 10.0 mi WNW 26.5 mph 32.2 mph N/A   Clear
10:55 AM -16.6 °F -45.3 °F -27.4 °F 58% 30.63 in 10.0 mi WNW 23.0 mph 27.6 mph N/A   Clear
11:15 AM -16.6 °F -47.9 °F -25.6 °F 64% 30.62 in 10.0 mi WNW 28.8 mph 33.4 mph N/A   Clear
11:35 AM -16.6 °F -45.9 °F -23.8 °F 70% 30.63 in 10.0 mi WNW 24.2 mph 29.9 mph N/A   Clear
12:15 PM -16.6 °F -45.9 °F -23.8 °F 70% 30.63 in 10.0 mi WNW 24.2 mph 33.4 mph N/A   Clear
12:35 PM -14.8 °F -42.4 °F -23.8 °F 64% 30.62 in 10.0 mi WNW 21.9 mph 29.9 mph N/A   Clear
12:55 PM -14.8 °F -39.8 °F -23.8 °F 64% 30.63 in 10.0 mi WNW 17.3 mph 26.5 mph N/A   Clear
1:15 PM -14.8 °F -40.5 °F -23.8 °F 64% 30.62 in 10.0 mi WNW 18.4 mph 31.1 mph N/A   Clear
1:35 PM -14.8 °F -41.8 °F -22.0 °F 70% 30.63 in 10.0 mi WNW 20.7 mph 25.3 mph N/A   Clear
1:55 PM -14.8 °F -44.0 °F -23.8 °F 64% 30.61 in 10.0 mi WNW 25.3 mph 29.9 mph N/A   Clear
2:15 PM -14.8 °F -39.8 °F -23.8 °F 64% 30.62 in 10.0 mi WNW 17.3 mph 26.5 mph N/A   Clear
2:35 PM -14.8 °F -42.4 °F -22.0 °F 70% 30.62 in 10.0 mi WNW 21.9 mph 28.8 mph N/A   Clear
2:55 PM -14.8 °F -42.4 °F -22.0 °F 70% 30.61 in 10.0 mi WNW 21.9 mph 28.8 mph N/A   Clear
3:15 PM -14.8 °F -42.4 °F -22.0 °F 70% 30.61 in 10.0 mi WNW 21.9 mph 27.6 mph N/A   Clear
3:35 PM -14.8 °F -39.8 °F -22.0 °F 70% 30.62 in 10.0 mi WNW 17.3 mph 24.2 mph N/A   Clear
3:55 PM -14.8 °F -40.5 °F -22.0 °F 70% 30.62 in 10.0 mi WNW 18.4 mph 21.9 mph N/A   Clear
4:15 PM -14.8 °F -41.2 °F -20.2 °F 77% 30.61 in 10.0 mi WNW 19.6 mph 24.2 mph N/A   Partly Cloudy
4:35 PM -14.8 °F -38.3 °F -23.8 °F 64% 30.61 in 10.0 mi WNW 15.0 mph 24.2 mph N/A   Clear
4:55 PM -14.8 °F -39.1 °F -22.0 °F 70% 30.60 in 10.0 mi WNW 16.1 mph 25.3 mph N/A   Clear
5:15 PM -14.8 °F -40.5 °F -20.2 °F 77% 30.58 in 10.0 mi West 18.4 mph 26.5 mph N/A   Clear
5:35 PM -14.8 °F -42.9 °F -20.2 °F 77% 30.57 in 9.0 mi West 23.0 mph 26.5 mph N/A   Scattered Clouds
5:55 PM -14.8 °F -41.8 °F -22.0 °F 70% 30.56 in 5.0 mi West 20.7 mph 28.8 mph N/A   Mostly Cloudy
6:15 PM -14.8 °F -41.2 °F -20.2 °F 77% 30.56 in 10.0 mi West 19.6 mph 27.6 mph N/A   Scattered Clouds
6:35 PM -14.8 °F -39.1 °F -20.2 °F 77% 30.57 in 10.0 mi WNW 16.1 mph 19.6 mph N/A   Clear
6:55 PM -14.8 °F -37.5 °F -20.2 °F 77% 30.57 in 10.0 mi West 13.8 mph - N/A   Scattered Clouds
7:15 PM -14.8 °F -36.6 °F -20.2 °F 77% 30.56 in 10.0 mi West 12.7 mph - N/A   Partly Cloudy
7:35 PM -14.8 °F -33.5 °F -23.8 °F 64% 30.57 in 10.0 mi WNW 9.2 mph - N/A   Clear
7:55 PM -14.8 °F -34.6 °F -20.2 °F 77% 30.55 in 10.0 mi West 10.4 mph - N/A   Partly Cloudy
8:15 PM -14.8 °F -32.2 °F -18.4 °F 84% 30.56 in 10.0 mi West 8.1 mph 16.1 mph N/A   Mostly Cloudy
8:35 PM -14.8 °F -34.6 °F -20.2 °F 77% 30.54 in 10.0 mi West 10.4 mph - N/A   Overcast
8:55 PM -14.8 °F -33.5 °F -23.8 °F 64% 30.53 in 10.0 mi West 9.2 mph - N/A   Overcast
9:15 PM -14.8 °F -33.5 °F -20.2 °F 77% 30.52 in 10.0 mi WNW 9.2 mph - N/A   Mostly Cloudy
9:35 PM -14.8 °F -27.2 °F -20.2 °F 77% 30.53 in 10.0 mi NW 4.6 mph - N/A   Mostly Cloudy
9:55 PM -13.0 °F -36.8 °F -16.6 °F 84% 30.50 in 10.0 mi WNW 16.1 mph - N/A   Overcast
10:15 PM -13.0 °F -36.8 °F -20.2 °F 70% 30.49 in 10.0 mi WNW 16.1 mph 20.7 mph N/A   Overcast
10:35 PM -11.2 °F -34.4 °F -16.6 °F 77% 30.49 in 10.0 mi WNW 16.1 mph 20.7 mph N/A   Overcast
10:55 PM -11.2 °F -35.8 °F -18.4 °F 70% 30.47 in 10.0 mi NW 18.4 mph 23.0 mph N/A   Overcast
11:15 PM -11.2 °F -36.4 °F -20.2 °F 64% 30.47 in 8.0 mi NW 19.6 mph 25.3 mph N/A   Overcast
11:35 PM -11.2 °F -37.0 °F -16.6 °F 77% 30.46 in 4.0 mi NW 20.7 mph 27.6 mph N/A   Overcast
11:55 PM -11.2 °F -33.7 °F -18.4 °F 70% 30.47 in 4.0 mi NW 15.0 mph - N/A   Overcast